Wind_Speed
6 6 6 6 5 5 5 9 10 9 8 8 9 9 10 9 9 9 9 10 11 12 12 11 11 11 11 10 10 10 9 7 6 4 3 4 6 6 6 7 8 9 9 9 9 10 10 10 11 11 11 11 11 10 10 11 12 13 12 12 11 10 10 10 10 9 8 7 7 9 10 10 10 9 8 8 7 7 8 8 9 11 13 14 13
8 9 8 7 6 7 8 9 9 8 8 8 9 10 11 11 11 11 11 12 12 12 12 12 11 10 9 9 10 10 9 8 6 5 5 7 8 7 7 7 8 9 9 9 10 10 10 11 12 12 11 11 10 10 10 11 12 12 12 11 10 10 10 10 10 9 8 8 8 10 10 10 9 8 7 8 8 8 8 9 11 13 14 13 12
10 10 9 8 8 9 9 8 8 8 9 10 11 11 12 12 12 12 12 12 13 12 12 12 11 10 9 8 9 10 9 8 7 8 8 9 9 8 7 8 9 9 9 10 10 11 11 12 13 12 11 11 10 10 10 11 12 12 11 11 10 9 10 10 10 9 8 8 9 9 9 9 8 7 7 8 9 9 9 11 12 13 13 12 11
11 12 12 11 10 10 10 9 8 9 11 12 12 12 12 12 12 12 12 13 13 13 13 13 11 10 9 8 9 8 8 7 8 8 8 9 9 8 9 9 9 8 9 10 11 11 12 13 13 13 12 11 10 10 11 11 11 11 10 10 9 9 9 10 10 9 8 8 9 9 8 8 8 7 8 9 10 10 11 11 12 12 11 10 9
12 14 13 12 11 10 10 10 10 11 12 12 12 12 12 13 13 13 13 14 14 14 14 13 11 11 10 9 8 8 7 7 8 8 8 9 9 9 9 9 9 8 9 10 11 11 12 13 13 13 12 11 11 11 11 11 11 11 10 9 8 9 10 10 10 9 8 8 8 8 8 8 8 8 8 9 10 11 11 11 11 10 9 9 8
13 14 14 12 11 10 11 11 11 11 11 11 12 12 13 13 14 14 14 14 14 13 12 12 11 10 10 9 9 8 7 7 7 7 8 9 9 10 10 10 10 9 9 10 11 11 13 13 13 12 11 10 11 11 11 11 11 11 9 8 8 9 10 10 9 9 8 8 8 9 8 8 8 8 9 9 10 10 11 10 10 9 7 7 7
13 14 13 13 12 11 12 12 12 11 11 11 11 12 13 14 14 15 14 13 13 12 11 10 10 10 10 9 9 8 7 7 7 7 7 7 7 8 10 11 12 11 10 10 11 11 12 13 13 12 10 9 10 11 12 12 11 10 9 8 8 9 10 10 9 9 8 8 9 9 8 7 8 8 9 9 9 9 10 9 8 7 6 6 5
12 13 13 13 13 12 12 12 12 11 11 12 12 12 13 13 13 13 13 11 11 11 10 10 10 10 10 9 9 9 8 8 8 8 7 7 6 6 9 11 12 11 10 10 11 12 12 13 13 11 9 8 9 11 12 12 11 10 9 8 8 9 9 10 10 9 8 9 9 9 8 8 8 8 9 9 9 9 9 8 7 6 5 5 4
11 12 12 12 12 12 12 12 12 12 12 12 12 12 12 12 12 12 11 11 11 10 10 10 10 10 9 9 10 10 10 9 8 8 8 7 6 6 8 10 11 11 11 10 12 13 13 13 12 11 9 8 9 10 11 11 11 10 9 8 8 9 10 10 10 10 9 9 10 9 8 8 8 9 9 8 9 8 8 7 6 5 4 4 4
10 10 10 11 11 11 11 11 11 11 11 11 11 11 11 11 11 10 10 9 9 9 10 10 9 9 9 10 10 10 10 10 9 9 8 8 7 7 8 9 10 11 11 11 12 13 13 12 11 10 9 9 9 10 11 11 11 10 9 8 8 9 10 10 10 11 10 10 10 8 8 8 8 9 8 8 8 8 7 6 6 5 5 5 5
8 8 8 9 10 9 9 9 9 9 10 10 10 10 10 10 10 9 9 9 8 8 9 9 9 9 9 10 9 9 9 10 9 8 8 8 8 7 7 8 9 11 11 11 12 12 13 12 11 10 9 9 10 10 10 10 10 10 9 9 9 9 10 10 11 11 11 10 9 8 8 8 8 8 8 7 7 7 7 7 6 5 6 6 6
7 8 8 8 9 8 7 8 7 7 8 8 8 9 10 10 9 9 8 8 7 7 8 8 9 9 9 9 8 8 9 9 9 9 8 8 8 8 7 8 8 10 11 12 12 12 13 12 11 10 9 9 9 9 9 9 9 9 9 9 9 10 10 10 11 11 11 10 9 8 7 7 7 7 8 7 8 8 8 8 7 7 7 7 7
7 7 7 7 7 7 6 7 6 6 7 8 8 8 9 9 9 8 8 8 8 8 8 9 10 9 8 8 8 8 9 9 9 9 9 8 9 9 8 7 8 9 11 11 12 12 13 12 11 10 10 10 10 9 9 9 9 9 9 8 9 10 11 11 11 11 10 9 8 7 6 6 7 8 9 9 9 10 9 8 8 8 8 8 8
6 6 6 6 6 5 5 6 6 6 6 7 8 8 8 8 8 7 8 8 9 8 9 9 9 9 8 7 7 8 8 8 9 9 8 8 9 9 8 7 8 9 10 11 11 13 12 11 11 10 10 10 10 9 9 8 8 8 9 8 9 10 11 11 10 9 9 8 7 7 7 8 9 10 10 10 10 10 10 9 8 8 8 8 7
6 6 6 5 4 4 4 4 5 5 5 5 6 7 7 8 7 7 7 8 8 8 9 9 8 8 7 6 6 7 7 8 9 9 9 8 9 10 8 8 9 10 10 10 11 12 12 11 10 10 9 9 9 9 8 8 8 8 8 9 9 9 10 12 10 8 8 8 8 8 8 10 11 11 11 11 11 10 9 8 8 8 8 7 8
6 6 5 5 4 4 4 3 4 4 4 4 5 6 6 6 6 6 7 7 7 8 9 8 7 7 6 6 6 6 7 7 8 8 9 9 9 11 10 10 10 10 10 10 11 12 12 11 10 9 8 8 8 8 8 7 8 8 8 9 9 9 10 12 9 7 7 8 9 10 10 11 12 12 12 11 10 10 9 8 8 8 7 8 8
6 6 5 5 5 4 4 3 3 3 3 4 5 5 6 6 6 7 7 8 7 7 7 7 7 6 6 6 6 6 6 7 7 7 9 10 10 11 11 10 10 10 10 10 11 11 11 10 9 9 8 8 8 8 7 7 7 8 9 9 9 9 9 10 8 7 8 9 11 12 12 12 12 12 11 10 9 9 8 7 7 7 7 8 8
5 5 4 4 4 4 4 3 3 3 4 4 5 5 6 6 7 7 8 8 8 6 6 6 7 7 6 7 6 6 7 7 7 8 9 10 10 10 9 10 10 10 10 10 10 11 11 10 9 8 8 7 7 7 6 6 7 8 9 10 10 10 9 10 8 7 9 11 13 13 12 12 12 11 10 8 8 8 7 6 6 7 7 7 8
4 4 4 3 3 3 3 3 3 4 4 5 5 6 6 6 7 8 8 8 8 7 6 7 8 8 7 8 8 8 8 8 8 9 10 11 11 10 9 10 10 10 10 10 11 11 11 10 9 8 8 7 7 6 6 6 7 8 9 10 11 10 10 10 8 7 10 12 13 13 12 11 11 10 8 7 7 7 6 6 6 6 6 7 8
4 3 2 2 1 1 2 2 3 3 4 4 5 6 6 5 6 7 8 8 8 7 8 8 8 8 8 9 10 9 8 9 9 10 12 12 12 11 10 10 10 11 10 10 10 11 11 10 9 8 8 7 7 6 6 6 7 8 9 10 11 10 10 10 9 9 11 13 13 12 11 11 10 9 7 6 6 5 5 5 5 5 6 8 9
3 2 1 1 1 1 2 2 2 3 3 4 5 6 6 5 6 7 8 8 8 8 8 9 9 8 8 9 10 9 9 9 11 12 13 13 13 12 11 10 11 11 10 10 10 11 11 10 9 8 8 7 7 6 6 6 6 8 9 11 11 10 11 12 10 10 12 13 12 11 11 10 9 8 6 6 5 4 4 4 5 6 8 9 10
2 1 1 0 1 2 2 2 3 3 3 4 6 6 6 6 7 7 8 8 9 9 9 9 9 9 9 9 9 9 9 10 11 13 14 14 14 12 11 11 11 11 10 9 10 11 10 10 9 8 8 8 7 6 7 7 6 8 10 11 11 10 11 12 10 11 12 12 11 10 10 9 8 7 6 5 4 4 4 5 6 8 9 9 9
2 1 0 1 1 2 2 2 3 3 3 4 6 7 7 7 7 8 8 9 10 10 10 10 10 10 10 9 10 10 10 11 12 13 15 15 14 12 11 11 11 11 10 9 10 11 10 10 9 8 8 8 7 7 7 8 6 7 10 11 11 12 12 12 10 11 12 11 10 10 9 8 7 6 5 5 5 5 5 6 7 8 8 9 9
3 2 1 1 2 2 1 2 3 3 4 4 5 6 6 6 7 8 9 9 10 11 11 11 11 11 10 10 10 10 10 11 13 15 17 16 15 13 12 12 12 11 10 9 10 11 11 10 8 8 7 8 8 7 7 8 8 7 10 11 11 13 13 11 10 11 11 10 9 8 8 7 6 5 5 5 5 6 6 7 7 8 8 9 9
4 3 3 3 2 1 1 1 2 2 3 4 4 4 4 5 6 7 7 8 9 11 11 11 12 11 10 10 10 11 10 10 13 16 17 17 15 14 13 12 12 11 10 9 10 11 10 9 8 8 7 7 8 7 7 8 9 8 9 11 12 13 12 10 9 10 10 9 8 7 7 6 5 4 5 6 6 7 7 8 8 9 9 9 9
4 4 4 4 4 3 3 3 3 3 3 2 3 3 3 4 5 5 5 6 7 9 11 11 12 12 11 10 10 10 10 10 12 14 16 17 16 14 13 12 12 11 9 9 10 11 10 9 9 8 8 8 7 6 7 8 10 9 9 10 12 13 11 10 9 9 9 8 7 6 5 5 4 4 5 6 7 8 8 8 9 10 10 9 10
4 5 5 5 5 6 6 6 5 4 3 2 1 2 2 2 3 3 3 5 5 7 8 9 11 12 13 11 11 11 10 11 12 14 15 17 16 14 13 12 11 10 9 9 11 12 11 9 9 9 9 8 6 6 7 8 10 11 10 10 11 12 11 9 9 9 8 8 7 5 5 4 4 5 6 7 8 9 9 9 10 10 10 10 11
5 6 6 6 7 7 7 8 7 6 4 4 3 2 1 1 1 1 2 4 5 6 6 6 8 11 12 12 12 11 11 11 12 13 15 17 17 15 13 12 11 9 9 10 11 12 11 9 8 9 9 8 7 7 8 9 10 11 11 10 11 11 10 9 8 8 8 7 6 5 4 4 5 6 7 8 10 10 10 10 10 10 10 10 11
5 6 6 7 7 8 8 9 8 7 6 6 6 3 1 1 2 3 4 4 4 5 7 6 7 10 12 12 12 12 12 11 11 13 16 18 18 16 14 13 11 10 9 10 12 12 11 10 9 9 8 7 7 8 9 9 10 10 11 10 10 10 10 9 8 8 8 7 6 5 5 5 6 7 8 9 10 11 11 11 11 10 10 9 10
5 5 6 7 8 9 9 10 9 8 6 7 7 5 3 3 3 3 4 5 5 5 7 8 7 10 12 13 13 14 14 13 13 14 16 19 18 16 14 13 11 10 10 11 12 12 11 10 10 9 7 7 8 9 9 10 10 9 10 10 9 10 9 9 8 8 8 7 7 6 5 6 7 8 9 9 10 10 11 11 11 10 10 9 9
5 5 5 6 7 9 10 10 9 7 7 7 7 6 5 4 5 4 4 6 5 4 6 8 8 9 12 13 14 14 14 14 15 15 17 18 17 15 14 12 10 9 10 11 12 11 10 9 9 7 6 7 9 9 8 9 11 8 9 10 9 9 9 9 9 8 8 7 7 6 6 6 7 8 9 9 9 10 11 11 11 10 9 8 8
4 5 6 6 7 9 10 10 9 8 8 7 8 8 7 6 6 6 6 6 6 5 6 8 8 10 13 13 14 14 14 15 16 17 18 17 15 14 13 11 9 9 10 11 11 11 10 9 7 5 6 7 7 9 7 8 11 9 8 9 8 9 8 8 8 8 7 7 6 5 5 5 6 7 8 9 10 10 11 12 11 10 9 7 6
4 5 6 6 7 8 10 10 9 8 7 7 8 8 8 8 7 8 7 8 8 8 8 8 8 11 13 14 14 15 15 16 16 18 18 17 15 13 12 11 10 10 11 11 10 10 10 9 7 5 6 6 5 7 7 7 10 9 8 9 8 8 7 7 7 7 6 5 4 4 4 4 6 7 8 9 10 11 11 11 10 9 8 6 5
3 4 5 6 8 9 10 11 10 8 8 8 8 8 9 9 8 8 9 10 10 10 9 8 8 10 12 13 14 15 16 16 17 18 18 16 14 12 12 10 10 11 11 11 11 10 9 8 7 6 6 6 6 8 6 6 9 9 8 8 8 8 7 6 5 5 4 3 3 3 4 5 6 8 8 8 9 10 10 10 9 8 8 6 5
3 4 5 6 7 8 9 10 10 9 8 8 8 9 9 10 9 9 10 11 10 9 9 9 8 9 11 14 14 14 15 16 17 17 16 15 13 12 12 11 10 11 11 11 11 10 8 7 5 6 7 6 7 8 6 6 8 8 8 8 7 8 7 6 4 3 3 2 3 4 4 5 6 7 8 8 8 9 8 9 9 8 8 6 5
3 4 5 5 6 7 9 10 10 9 8 8 9 9 9 10 10 10 10 10 10 10 10 10 10 10 13 15 14 14 14 16 18 18 16 14 12 11 11 11 12 12 11 11 9 8 7 6 5 4 6 6 6 7 7 6 7 7 8 8 7 7 7 5 3 3 3 3 3 3 4 5 6 7 7 8 8 8 8 8 8 8 9 6 5
3 5 5 6 6 7 9 9 10 10 9 8 8 8 8 10 10 11 11 11 10 10 11 12 12 13 15 16 15 13 14 16 18 17 16 14 12 11 11 12 12 12 11 10 8 6 5 6 5 4 5 6 6 7 7 5 4 5 8 8 6 5 5 4 3 3 4 2 2 3 4 5 6 7 7 8 8 8 8 8 8 9 10 8 6
3 5 5 6 6 7 8 9 10 10 9 8 8 7 8 9 10 11 12 11 10 11 12 13 13 14 16 17 15 14 15 17 17 16 14 13 12 12 12 12 13 11 10 9 7 6 4 4 4 4 5 5 5 6 6 5 5 5 6 6 6 4 4 4 3 2 3 3 2 3 5 7 8 8 8 8 8 9 9 9 9 10 10 8 8
3 4 5 6 6 7 8 9 9 9 9 8 7 7 8 9 9 10 11 10 11 11 12 13 14 15 16 16 16 16 16 16 16 14 12 11 11 12 12 12 12 10 8 8 7 5 4 4 3 4 4 5 5 4 4 5 5 5 5 5 5 5 4 4 4 3 3 3 4 4 6 8 9 10 10 9 9 9 9 10 10 11 10 9 9
2 3 5 5 6 6 7 8 9 9 9 8 7 8 7 8 9 9 10 10 11 11 11 12 13 15 16 16 16 16 15 15 14 12 11 10 11 13 13 12 11 9 7 7 6 4 5 5 4 3 3 5 5 3 3 4 4 5 5 5 5 5 4 4 4 5 4 4 5 6 8 9 10 10 10 9 9 9 10 10 10 11 10 9 9
2 2 4 4 5 6 6 8 9 9 9 9 8 7 7 7 8 9 9 9 11 11 11 12 13 14 14 15 14 15 14 14 13 11 10 12 12 13 13 11 10 8 7 6 5 4 5 5 4 3 4 4 4 3 3 3 2 3 5 4 4 5 5 4 5 6 5 5 5 5 6 7 8 9 7 6 7 9 10 10 9 10 10 11 12
2 1 2 3 4 6 6 7 8 9 10 9 8 7 6 6 7 7 8 9 10 11 11 11 12 13 13 13 13 13 13 12 12 11 11 13 13 12 11 11 9 7 6 6 5 5 5 5 5 3 4 4 3 3 5 4 2 1 3 4 4 5 5 5 6 5 4 4 4 5 5 5 6 7 6 7 8 8 9 10 10 10 12 13 14
2 1 1 2 3 5 5 6 7 8 10 10 10 8 7 6 6 7 8 8 9 10 11 10 11 12 12 12 11 11 12 12 12 11 12 13 13 11 11 10 9 7 6 6 6 6 6 6 5 3 4 5 4 3 4 5 3 2 3 4 4 5 4 5 5 3 3 3 4 6 6 6 4 3 5 7 7 7 8 10 10 11 12 13 13
2 1 1 1 2 3 4 5 6 7 8 9 10 10 9 8 7 8 8 7 7 9 10 10 11 11 11 11 10 10 10 11 12 12 13 13 12 11 10 9 8 7 6 6 6 6 6 6 4 4 4 5 5 4 4 5 5 5 4 5 4 4 3 5 5 2 3 3 4 5 5 5 4 4 6 7 6 6 8 10 10 9 12 13 13
2 2 1 1 1 2 3 4 4 5 6 8 9 9 10 9 9 10 9 8 8 9 9 10 10 10 9 9 9 9 10 11 12 12 13 12 11 10 9 8 7 7 6 5 5 5 6 5 4 4 4 4 5 5 5 5 4 5 5 4 3 3 2 4 4 2 3 3 3 4 4 5 3 4 6 6 5 6 8 8 8 9 11 13 14
2 3 2 2 1 1 2 3 3 3 5 6 7 8 8 9 10 10 10 9 9 9 9 9 9 9 8 8 9 9 10 11 11 12 11 11 11 10 9 7 6 6 5 4 4 4 5 5 4 4 4 4 5 5 5 5 4 4 4 4 3 3 2 2 3 2 3 4 3 3 3 3 2 3 4 4 4 5 6 7 7 9 12 13 14
3 3 3 3 2 2 2 2 2 2 3 4 5 6 7 8 8 9 10 10 10 10 9 9 9 8 8 8 9 9 10 11 11 10 9 9 9 8 7 6 5 5 5 4 3 4 5 4 4 5 5 5 5 5 5 5 5 4 3 3 2 2 2 2 3 2 3 4 3 4 3 2 3 4 4 4 5 5 6 6 7 9 12 11 11
4 4 4 3 3 3 2 2 2 2 2 3 4 5 6 6 7 8 8 9 9 10 9 9 9 9 8 9 10 10 10 11 9 8 8 8 7 6 6 5 5 4 4 4 4 4 4 3 4 5 6 5 5 5 4 4 5 4 3 3 2 1 2 2 2 3 3 3 4 4 4 5 5 4 4 4 4 5 5 6 7 8 9 9 9
6 5 4 4 3 3 3 3 2 2 2 2 3 4 4 5 6 6 7 7 8 9 9 9 9 9 9 9 10 9 9 9 8 7 7 7 6 5 4 4 4 4 3 4 3 3 3 3 3 4 5 5 5 4 4 3 3 3 2 2 2 1 0 1 1 2 2 2 3 3 3 5 5 4 5 5 5 5 6 6 7 9 11 10 10
8 6 6 5 4 4 4 4 3 3 2 2 2 3 3 3 4 5 5 6 6 7 7 7 7 8 8 8 8 8 8 7 7 6 5 5 5 4 4 3 3 3 2 3 3 3 2 2 3 4 4 4 4 4 3 3 2 3 2 2 2 2 2 1 0 2 3 2 2 2 3 4 4 4 4 5 6 7 7 8 9 10 11 11 11
10 8 7 7 6 5 5 5 5 4 3 3 2 3 3 3 3 3 4 4 5 5 6 6 6 6 6 7 6 6 6 6 5 5 4 4 3 3 3 3 3 2 2 2 2 2 3 3 4 4 4 3 3 3 3 3 3 3 2 2 2 2 3 2 0 1 2 2 2 3 3 4 5 4 3 5 7 7 7 9 10 11 10 10 11
Wind_Direction
164 157 148 140 136 126 142 175 192 206 211 218 212 198 188 181 176 175 170 164 168 169 174 180 182 186 188 183 178 181 180 181 176 149 142 132 116 120 124 117 114 115 116 112 108 107 109 110 110 109 107 108 111 117 121 123 122 117 110 100 91 83 75 66 55 47 50 61 74 84 91 96 97 98 97 92 88 88 94 104 114 120 122 122 119
141 140 136 128 126 125 134 158 182 199 200 198 188 177 171 167 166 166 163 164 167 167 172 173 173 171 171 175 175 179 180 183 172 147 145 133 122 124 123 116 116 121 118 112 109 109 112 113 113 112 112 113 115 119 123 124 123 116 107 99 89 79 69 59 51 49 56 69 83 91 95 95 92 90 89 88 87 89 98 111 119 123 123 120 116
125 123 117 114 117 122 130 147 166 176 169 162 158 157 158 157 158 160 163 165 163 161 165 166 164 156 153 162 169 178 181 179 163 148 146 135 127 128 125 120 120 123 119 113 109 110 114 115 116 117 117 118 120 122 126 127 123 115 106 96 85 73 63 52 46 50 63 80 93 96 93 89 85 84 81 84 88 95 106 115 120 123 121 116 110
115 108 103 105 111 117 123 132 142 149 150 152 153 153 153 153 155 158 160 159 157 156 160 162 161 156 157 158 160 171 175 166 155 147 141 133 131 132 129 124 123 123 121 116 113 113 116 119 120 121 122 123 125 126 128 128 123 115 105 93 82 70 59 48 46 54 73 89 95 92 86 81 78 78 79 85 92 101 110 115 118 119 115 110 104
110 104 103 107 111 116 120 126 130 136 142 149 152 149 149 150 151 153 154 155 156 156 155 156 155 152 158 164 160 164 162 152 146 139 134 132 135 138 134 128 124 122 121 117 116 118 119 120 122 122 123 125 126 128 129 129 125 116 106 96 82 68 55 46 50 63 79 90 92 86 80 77 76 77 82 89 97 105 111 114 114 112 109 106 99
108 107 108 111 113 115 120 123 126 131 139 147 147 143 143 145 147 148 149 151 153 155 153 151 151 152 161 169 161 153 147 138 136 135 134 134 141 144 138 131 125 122 119 116 118 120 120 121 120 119 121 124 127 128 129 129 126 120 111 97 81 66 52 50 61 73 83 91 88 83 80 80 81 83 88 94 101 108 112 111 109 107 105 100 93
112 113 113 113 113 115 120 123 127 133 141 143 141 139 141 144 148 149 150 153 155 157 154 152 154 160 171 169 154 144 139 136 135 137 136 133 142 145 136 131 127 124 121 119 119 120 121 120 118 117 118 123 127 127 128 129 127 122 112 95 80 65 54 60 77 87 93 94 88 84 82 84 85 88 92 98 104 107 108 106 105 105 100 92 87
115 116 117 117 116 120 124 128 132 137 142 141 140 141 144 147 149 151 156 160 159 157 156 163 165 167 171 160 147 143 144 143 139 137 133 131 139 140 133 130 127 125 125 125 123 121 122 122 120 119 118 122 125 127 128 129 127 120 110 95 81 68 63 75 92 101 103 96 89 88 87 86 87 89 93 97 101 102 101 101 100 96 92 88 82
113 113 116 119 120 124 128 132 134 138 142 141 141 144 146 147 148 150 156 159 158 157 163 173 171 168 166 157 150 147 147 144 139 139 135 134 139 142 134 128 127 125 126 127 125 124 124 124 123 122 122 124 126 127 129 130 126 119 109 97 84 76 81 93 104 108 104 98 95 96 97 94 93 94 96 99 101 101 98 96 91 85 80 75 67
112 110 112 117 121 126 129 132 134 139 143 142 143 145 146 144 144 148 151 155 158 162 168 173 170 167 163 156 153 148 144 142 143 142 138 137 142 147 136 127 127 124 124 124 124 124 125 125 125 124 125 126 127 129 131 130 126 118 109 98 87 83 95 107 111 108 104 101 101 103 104 101 102 103 105 106 104 100 95 89 82 77 70 62 56
112 110 112 120 125 129 132 133 134 139 143 145 148 149 146 140 141 146 149 151 155 162 167 169 166 163 156 151 151 146 139 143 146 141 139 142 142 140 133 129 128 124 123 122 122 123 124 125 126 125 124 125 126 128 132 130 125 116 107 96 89 91 101 109 108 108 108 106 107 109 108 108 109 108 107 105 100 96 88 82 77 71 63 55 49
111 110 116 124 127 131 133 133 135 140 146 151 156 156 149 143 146 151 153 154 156 159 161 162 157 156 156 150 150 144 139 144 144 140 143 146 138 133 136 135 129 124 121 119 121 125 125 125 127 125 123 122 122 125 129 126 120 112 103 96 96 100 104 107 107 109 111 113 116 114 112 111 108 104 101 98 95 90 85 79 74 67 59 52 48
107 107 113 120 124 130 134 135 138 144 152 159 160 158 152 150 155 157 156 157 158 156 158 158 151 155 160 151 147 145 144 145 148 148 145 143 141 141 144 137 129 124 119 119 123 127 126 127 127 126 123 121 120 121 123 121 116 110 102 100 102 107 108 108 108 111 116 120 122 116 112 108 103 99 97 95 90 86 83 79 73 66 58 53 51
107 108 112 116 122 128 136 140 144 150 157 164 164 158 155 156 160 157 154 156 158 158 158 157 152 154 156 149 145 146 148 151 157 154 140 142 147 139 138 140 136 129 122 123 126 128 130 129 129 127 123 119 117 117 118 117 113 107 100 99 102 107 109 106 107 115 123 124 120 114 110 107 103 100 96 91 86 84 82 79 72 64 59 55 51
115 116 118 120 127 134 139 142 147 152 155 161 163 162 159 160 163 163 162 162 165 166 162 160 160 155 150 152 150 149 156 161 160 152 140 145 145 132 143 159 143 133 128 127 129 133 134 133 132 129 123 117 115 114 114 115 111 105 98 98 100 105 107 105 110 122 127 123 116 112 110 108 103 98 93 89 86 85 82 76 68 60 56 51 43
123 121 128 136 144 152 154 159 161 159 156 156 164 170 168 166 169 175 178 179 180 178 169 164 170 163 153 158 160 162 164 162 158 153 147 147 146 143 159 161 140 135 133 130 134 137 138 137 136 129 123 119 117 114 113 114 111 104 99 97 97 101 104 106 116 128 127 122 116 113 110 106 100 95 92 91 89 86 82 72 63 55 50 43 36
123 126 137 145 150 160 168 175 179 177 174 173 180 184 186 184 185 193 196 198 196 189 178 168 175 178 167 167 167 170 171 165 162 158 151 150 156 158 158 149 137 139 136 134 138 139 140 139 137 130 126 121 116 112 111 114 111 105 100 97 95 98 103 106 116 129 128 122 116 112 108 103 98 96 94 92 90 86 78 67 57 49 43 36 30
119 129 134 135 146 161 171 181 187 192 192 196 198 198 199 198 201 209 208 208 206 200 195 182 185 196 187 179 172 178 183 171 166 163 158 158 162 162 157 148 143 143 142 140 140 141 141 139 137 132 126 119 112 108 109 111 109 105 102 101 102 103 106 107 115 130 128 120 114 110 106 102 98 98 97 93 88 82 72 59 49 41 35 28 22
108 114 119 121 139 164 173 185 196 200 202 206 210 212 210 207 210 216 216 214 210 203 202 196 199 209 202 191 185 187 184 167 169 172 167 164 164 167 165 155 149 147 146 143 141 142 140 139 139 132 125 117 111 108 109 112 109 108 106 107 110 110 109 109 119 132 125 116 112 110 106 102 99 98 96 91 84 78 67 54 41 31 23 17 16
87 97 108 109 136 195 207 216 219 217 219 223 227 230 229 224 223 224 223 221 214 204 200 201 204 209 203 199 196 189 177 163 169 176 172 168 168 172 170 159 153 151 146 142 142 142 139 138 138 131 124 119 116 115 114 116 112 111 110 111 112 111 111 113 125 131 120 114 112 109 105 101 98 96 93 86 79 73 62 46 30 19 13 12 14
74 77 76 73 227 236 251 252 257 261 258 258 253 251 249 241 234 232 228 225 221 211 203 206 207 207 205 204 202 189 178 171 172 177 173 170 173 173 169 162 156 153 146 142 142 141 139 137 135 130 126 122 123 124 119 114 112 112 114 114 111 112 114 117 128 128 117 114 112 107 102 99 96 93 89 79 71 63 47 28 14 9 8 10 12
78 78 66 305 261 253 262 269 271 271 268 268 267 264 260 252 244 240 235 231 230 223 211 210 209 209 209 207 204 195 188 182 180 183 179 174 174 171 169 164 159 154 148 145 142 140 139 138 138 135 130 126 128 129 121 112 111 114 116 114 113 114 115 121 131 125 116 114 110 104 101 98 93 89 83 71 60 47 29 14 8 7 8 9 10
59 69 132 246 271 269 279 284 279 280 278 263 260 262 257 253 246 241 240 237 236 233 222 216 212 209 210 207 203 201 196 191 188 186 181 176 171 168 172 168 161 156 151 147 142 143 144 143 144 138 131 130 130 130 124 116 113 120 120 116 117 116 116 126 133 121 116 114 108 103 100 97 94 88 76 61 46 32 20 11 10 10 10 10 12
31 14 337 298 269 271 290 282 284 301 295 272 263 264 256 247 240 237 237 237 239 237 231 224 214 209 206 202 202 204 202 199 193 185 177 173 168 169 175 170 162 158 154 148 145 150 150 149 145 136 131 133 131 128 125 119 118 125 122 119 119 116 120 131 131 120 117 114 108 103 99 96 92 82 68 52 39 27 20 14 14 17 17 15 15
18 4 340 328 329 344 11 341 327 327 297 282 275 270 261 246 236 235 231 231 237 236 232 225 216 210 204 201 203 204 203 201 194 184 174 167 167 170 174 168 161 160 156 149 149 153 153 150 142 133 131 132 132 128 125 122 123 125 122 122 119 117 126 134 127 119 117 114 108 103 97 92 83 68 56 47 37 30 24 21 23 25 24 20 20
6 355 351 343 351 13 26 20 8 354 317 295 284 281 269 251 240 239 230 219 227 231 228 223 219 213 207 203 201 199 198 195 185 179 170 163 166 172 173 165 161 161 155 150 150 152 153 152 143 135 132 129 131 128 125 126 125 124 123 123 119 120 130 133 125 120 116 112 104 98 92 82 69 55 47 43 36 32 29 28 28 28 27 24 24
2 350 353 358 6 18 25 25 16 6 352 335 330 324 296 255 241 245 229 206 207 217 213 214 216 209 206 201 194 195 197 189 179 173 167 163 167 172 169 162 160 158 154 153 152 152 154 155 146 137 134 131 127 118 118 125 126 125 125 122 118 122 129 128 123 118 112 105 97 91 83 69 56 47 41 35 30 28 28 30 30 30 29 25 24
6 359 356 1 10 21 25 27 26 23 14 12 26 21 354 261 192 136 159 183 189 193 187 192 194 190 194 192 189 194 193 187 179 172 167 167 170 169 164 159 158 156 156 156 153 153 153 152 144 136 136 133 124 116 118 125 128 128 125 121 119 122 126 123 117 111 105 98 93 84 72 61 47 40 34 29 27 27 27 30 32 34 32 27 25
9 3 359 359 6 22 27 29 32 29 23 28 41 54 78 114 136 113 113 148 178 173 160 172 175 172 176 177 183 186 180 179 177 172 172 173 171 164 159 158 157 155 157 156 153 153 151 151 141 133 136 130 120 120 125 131 133 129 122 120 118 118 120 117 110 106 101 96 91 80 62 49 38 32 29 29 28 30 31 32 35 37 35 29 28
12 9 1 360 8 25 31 33 36 30 26 39 53 69 95 102 119 124 118 128 155 157 144 156 165 163 165 167 175 175 168 170 172 172 174 174 168 160 157 156 155 155 158 157 155 155 156 153 139 134 135 120 112 117 130 135 129 123 118 116 114 113 115 111 106 100 95 92 87 73 51 36 32 30 28 29 31 34 37 39 40 39 38 32 30
14 13 4 6 20 30 35 39 42 37 33 46 65 79 91 95 104 112 112 119 138 146 137 145 148 151 158 162 169 169 162 162 165 168 170 169 163 158 154 151 152 158 161 158 156 158 155 145 133 132 126 115 116 123 140 136 123 119 115 114 112 110 112 110 104 99 98 95 86 71 51 36 34 35 31 28 31 38 42 45 45 43 42 35 30
16 5 6 20 31 34 40 47 47 43 40 49 67 79 88 91 94 99 105 112 117 111 118 131 135 143 153 159 162 160 157 158 160 162 163 162 160 157 149 145 150 159 160 156 155 154 145 133 127 123 111 115 124 127 143 133 118 119 116 111 108 106 109 110 106 104 102 96 90 77 62 48 43 42 37 32 31 36 42 46 47 46 47 40 30
19 3 12 25 36 41 47 54 55 51 50 57 67 74 83 88 93 99 100 105 106 101 103 114 126 140 147 154 155 152 154 156 158 159 157 158 158 152 143 145 155 159 157 153 150 146 138 130 126 115 105 121 125 119 131 122 112 119 118 112 109 107 109 108 109 109 104 97 90 76 62 46 42 41 35 33 31 35 41 44 47 49 52 47 27
20 9 19 25 35 44 48 55 61 57 54 62 72 79 83 88 95 96 95 100 101 98 98 99 114 137 146 150 151 150 152 153 154 155 154 154 153 147 143 151 159 157 154 151 147 140 135 133 131 121 113 131 127 116 127 114 109 121 122 119 118 114 112 112 117 113 106 97 69 55 49 39 37 38 35 34 33 36 38 39 42 46 51 45 16
37 24 31 31 35 42 47 54 61 61 59 66 79 89 92 97 100 97 100 104 100 97 101 101 109 131 145 148 148 148 148 148 148 149 150 148 148 147 147 152 155 153 153 148 143 137 135 132 127 125 126 140 131 119 131 116 110 125 127 124 125 122 124 132 142 126 100 65 47 36 32 38 38 39 42 41 39 40 36 35 39 42 47 42 13
46 37 35 41 45 46 48 51 56 63 65 68 78 89 98 105 104 102 107 110 105 106 111 112 112 121 137 145 143 142 144 144 143 145 145 144 147 147 145 147 149 150 148 141 138 139 136 124 116 131 134 139 130 111 116 115 117 132 128 125 129 132 141 150 152 129 100 48 37 36 30 36 40 43 47 46 45 42 35 33 38 44 47 40 13
45 41 29 32 42 48 51 50 51 59 64 69 76 84 95 103 104 109 113 110 108 112 116 115 113 117 132 142 140 139 143 142 142 143 142 143 149 147 143 145 145 147 144 137 137 139 135 126 123 136 131 126 123 109 109 122 132 133 125 125 132 137 145 145 144 120 103 73 33 39 39 39 40 42 45 46 46 41 32 29 33 40 42 33 9
42 47 32 23 32 46 54 52 49 54 64 71 77 88 101 107 108 114 116 111 111 115 116 116 115 119 129 139 140 140 142 140 139 138 136 142 147 144 143 142 141 145 143 134 132 130 125 124 120 122 118 113 115 114 123 138 137 126 123 126 129 135 141 134 134 117 95 87 51 28 29 31 32 34 39 41 43 39 29 24 25 28 33 30 10
45 55 42 23 21 39 53 58 53 51 61 70 76 88 101 111 114 115 115 111 112 114 113 115 117 120 126 134 138 138 137 134 132 132 135 142 144 140 138 138 139 144 142 132 126 122 115 106 99 106 109 103 95 96 121 131 131 128 126 129 130 136 140 132 128 105 73 62 49 34 30 29 25 23 26 28 30 35 29 21 20 18 23 24 8
49 59 52 30 17 28 47 60 63 57 58 64 68 76 86 100 108 110 112 110 109 110 109 111 115 118 122 126 129 129 128 126 125 129 137 141 141 137 136 137 138 137 133 127 120 117 110 100 99 112 109 100 95 99 122 122 126 130 128 133 136 130 122 115 106 96 82 63 43 33 35 36 32 30 30 21 14 20 25 18 13 13 14 15 11
44 50 58 42 20 20 36 56 66 67 66 65 64 70 76 85 95 103 114 117 113 112 112 113 115 117 119 121 123 123 124 124 126 134 139 137 138 138 138 136 130 126 123 118 112 108 103 95 97 113 113 106 113 132 124 102 91 126 129 128 126 113 103 87 71 70 68 64 55 46 41 34 33 40 42 26 11 10 12 6 4 10 8 9 16
61 44 61 56 30 17 27 48 63 72 76 76 75 75 77 80 87 96 108 117 116 114 112 114 118 119 121 122 122 123 125 129 134 139 137 135 139 139 134 129 125 122 118 112 110 107 102 99 94 103 113 110 112 120 112 92 49 123 128 113 103 93 85 69 59 60 64 67 67 68 70 55 37 34 27 10 10 9 3 359 2 10 6 5 11
95 82 63 64 48 25 23 41 59 73 79 82 83 83 83 85 91 96 98 105 112 114 113 118 123 124 126 127 127 130 132 136 137 137 136 136 139 136 128 125 126 122 115 110 109 108 102 99 97 107 114 109 107 110 116 115 116 145 108 85 88 92 86 79 74 72 80 74 55 51 59 68 53 16 13 3 357 3 2 3 7 6 1 358 3
118 117 120 75 69 44 29 37 55 73 81 83 85 84 85 86 90 98 101 104 108 114 121 130 135 133 132 133 133 135 136 137 137 136 136 138 137 133 127 127 127 120 115 110 105 104 98 95 102 112 111 112 120 132 137 127 132 141 106 62 58 73 83 100 106 102 69 56 45 52 55 62 48 346 9 7 349 2 8 9 9 3 356 353 1
143 132 144 147 126 78 46 39 52 74 86 88 86 84 83 83 83 89 99 106 108 112 122 131 135 132 132 134 133 134 136 137 138 136 135 137 138 135 132 131 128 120 115 111 107 104 96 96 106 118 123 124 127 139 143 131 127 134 123 97 75 77 85 99 114 126 81 66 44 48 47 54 47 354 6 1 346 4 11 11 2 354 1 1 360
165 144 150 169 188 140 77 54 54 71 90 93 91 85 80 79 80 82 87 93 98 104 112 118 123 126 130 133 133 135 137 136 138 138 136 140 143 141 138 136 132 125 119 113 106 95 93 105 116 122 134 136 133 136 137 133 129 131 135 135 134 140 146 104 95 93 65 67 43 24 32 44 39 18 16 359 347 358 10 13 353 350 7 7 357
186 158 154 163 193 189 139 93 71 75 95 100 96 89 82 78 77 79 82 84 87 93 100 107 114 122 128 130 132 136 137 137 138 140 142 144 146 147 144 142 137 132 131 122 101 86 90 117 129 125 129 136 137 131 129 135 136 141 151 148 149 138 132 111 88 65 39 41 15 7 31 29 14 21 32 24 5 357 5 3 345 349 5 7 358
200 181 164 160 180 200 192 155 111 87 102 115 108 96 90 84 79 78 81 83 85 88 94 102 109 117 126 127 130 137 138 138 142 147 148 147 148 151 150 144 139 139 138 126 109 98 101 123 137 134 134 136 140 142 150 146 134 144 152 145 151 106 89 87 82 87 70 25 352 351 3 1 2 6 17 24 6 359 3 346 335 351 7 12 6
214 200 181 167 168 190 205 192 162 131 120 134 129 114 101 95 90 86 83 83 88 91 94 99 106 113 121 125 130 138 140 141 146 151 148 146 150 152 147 140 140 146 142 130 117 107 113 137 145 142 138 137 141 156 167 148 135 155 153 146 164 153 94 28 55 82 74 357 323 317 337 354 8 11 5 359 346 355 359 341 342 358 6 10 6
226 214 201 190 173 176 196 204 198 173 152 166 154 141 128 112 107 103 98 96 97 100 102 103 107 113 118 124 131 139 142 143 146 150 151 151 155 152 142 144 146 153 150 137 129 124 139 162 156 150 146 144 149 159 163 149 162 190 178 174 187 193 231 246 345 13 10 349 306 306 336 356 11 24 11 337 326 343 348 342 349 358 359 3 5
231 223 214 208 191 179 188 200 206 197 179 181 179 168 157 142 138 131 123 121 117 113 115 116 118 121 124 128 134 140 142 145 147 152 156 157 164 158 154 165 161 168 174 154 148 153 166 170 163 163 164 164 168 168 164 160 176 195 187 187 194 215 250 252 209 354 334 314 301 319 341 345 349 3 358 319 314 330 342 343 348 354 353 356 4
Height
5894 5894 5895 5895 5895 5895 5895 5896 5897 5897 5897 5898 5899 5899 5900 5901 5901 5902 5903 5904 5905 5906 5907 5908 5909 5910 5911 5913 5915 5916 5916 5916 5916 5916 5916 5916 5917 5918 5918 5918 5918 5918 5918 5917 5916 5915 5915 5914 5914 5914 5914 5914 5914 5914 5914 5914 5915 5915 5915 5916 5916 5916 5916 5916 5915 5915 5915 5915 5914 5914 5914 5914 5914 5915 5915 5915 5915 5915 5915 5915 5915 5915 5915 5916 5916
5895 5895 5896 5896 5896 5895 5895 5896 5896 5897 5897 5898 5899 5899 5900 5900 5900 5901 5903 5904 5905 5906 5907 5908 5910 5911 5912 5914 5915 5916 5917 5917 5917 5917 5917 5916 5916 5917 5918 5918 5918 5919 5919 5918 5917 5916 5916 5915 5915 5915 5914 5914 5914 5914 5915 5915 5915 5916 5916 5916 5917 5917 5917 5916 5916 5916 5916 5915 5915 5915 5916 5916 5916 5916 5916 5915 5915 5915 5915 5916 5916 5916 5916 5916 5916
5896 5896 5896 5896 5896 5896 5896 5897 5897 5897 5898 5898 5899 5899 5900 5900 5901 5902 5903 5904 5905 5906 5907 5909 5910 5911 5913 5914 5915 5916 5917 5917 5917 5917 5917 5917 5917 5918 5918 5918 5918 5919 5919 5918 5917 5917 5916 5916 5915 5915 5916 5915 5915 5915 5915 5916 5916 5916 5916 5917 5917 5917 5917 5917 5917 5917 5916 5916 5917 5917 5917 5917 5917 5917 5916 5916 5916 5916 5916 5916 5917 5917 5917 5917 5917
5896 5897 5897 5897 5897 5897 5897 5898 5898 5898 5899 5899 5899 5900 5900 5901 5901 5903 5903 5904 5905 5906 5907 5909 5910 5912 5913 5914 5915 5916 5917 5918 5918 5918 5918 5918 5918 5919 5919 5918 5918 5919 5919 5918 5918 5918 5917 5917 5916 5916 5917 5917 5916 5916 5916 5916 5917 5917 5917 5917 5917 5917 5917 5917 5917 5917 5917 5918 5918 5918 5918 5918 5918 5918 5917 5916 5916 5917 5917 5917 5918 5918 5918 5918 5919
5897 5897 5898 5898 5898 5898 5899 5899 5899 5899 5899 5900 5900 5900 5901 5902 5902 5903 5904 5905 5906 5907 5908 5909 5910 5912 5913 5914 5915 5916 5917 5917 5918 5918 5919 5919 5919 5919 5919 5919 5919 5919 5919 5918 5918 5918 5918 5917 5917 5917 5918 5918 5918 5917 5917 5917 5918 5918 5918 5918 5918 5918 5918 5918 5918 5918 5918 5919 5919 5919 5919 5919 5918 5918 5918 5917 5917 5918 5918 5919 5919 5919 5919 5919 5919
5897 5898 5898 5899 5899 5899 5900 5900 5900 5900 5900 5901 5901 5901 5902 5903 5903 5904 5905 5906 5907 5908 5909 5910 5911 5913 5914 5914 5914 5915 5916 5917 5918 5919 5920 5920 5920 5920 5920 5919 5919 5919 5919 5918 5918 5918 5918 5918 5918 5918 5918 5919 5919 5918 5918 5919 5919 5919 5919 5920 5920 5919 5919 5919 5918 5919 5919 5920 5920 5920 5920 5920 5919 5919 5919 5918 5919 5919 5919 5920 5920 5920 5921 5920 5920
5898 5898 5899 5899 5899 5900 5900 5900 5901 5901 5901 5902 5902 5903 5903 5904 5904 5905 5906 5907 5907 5908 5909 5910 5911 5913 5913 5913 5914 5915 5916 5916 5917 5919 5919 5921 5922 5922 5921 5920 5919 5919 5919 5919 5918 5918 5918 5918 5918 5919 5919 5920 5919 5919 5919 5920 5920 5920 5920 5921 5921 5920 5920 5920 5920 5920 5921 5921 5921 5921 5921 5921 5920 5920 5920 5920 5920 5920 5921 5921 5921 5922 5921 5921 5920
5899 5899 5899 5900 5900 5901 5901 5901 5901 5902 5902 5903 5903 5904 5904 5904 5905 5906 5906 5907 5908 5909 5910 5910 5911 5912 5912 5913 5914 5915 5915 5915 5916 5918 5918 5920 5922 5923 5922 5920 5919 5919 5919 5919 5919 5918 5918 5918 5919 5919 5920 5920 5920 5920 5920 5921 5921 5921 5921 5922 5922 5922 5922 5921 5921 5922 5922 5922 5922 5922 5923 5922 5922 5922 5921 5921 5922 5922 5922 5922 5922 5922 5922 5921 5920
5900 5899 5900 5900 5901 5901 5902 5902 5902 5902 5903 5904 5904 5905 5905 5905 5905 5906 5907 5908 5909 5910 5910 5911 5911 5911 5912 5913 5914 5914 5914 5915 5916 5917 5918 5919 5921 5923 5922 5921 5920 5919 5919 5919 5919 5918 5918 5918 5919 5920 5921 5921 5921 5921 5921 5922 5922 5922 5922 5923 5923 5923 5923 5923 5923 5923 5923 5923 5923 5924 5924 5924 5923 5923 5923 5923 5923 5923 5923 5923 5923 5923 5922 5921 5921
5900 5900 5900 5901 5901 5902 5902 5903 5903 5903 5904 5904 5905 5905 5905 5905 5906 5907 5908 5908 5909 5910 5910 5911 5911 5911 5912 5913 5913 5913 5914 5915 5917 5917 5918 5918 5920 5922 5922 5921 5920 5919 5919 5919 5919 5919 5918 5919 5920 5921 5921 5922 5922 5922 5922 5923 5923 5923 5923 5924 5924 5924 5924 5924 5924 5924 5924 5924 5925 5925 5925 5925 5924 5924 5924 5924 5924 5924 5924 5924 5924 5923 5923 5922 5922
5900 5901 5901 5902 5902 5902 5903 5903 5903 5904 5905 5905 5905 5906 5906 5906 5907 5908 5908 5909 5910 5910 5910 5910 5911 5911 5912 5912 5913 5913 5914 5915 5916 5917 5918 5919 5920 5921 5921 5921 5920 5919 5919 5919 5919 5919 5919 5920 5921 5922 5922 5922 5922 5922 5923 5923 5924 5924 5924 5925 5924 5924 5924 5925 5925 5925 5925 5926 5926 5926 5926 5925 5925 5925 5925 5925 5925 5925 5925 5924 5924 5924 5923 5923 5923
5901 5901 5902 5902 5903 5903 5903 5904 5904 5905 5905 5905 5906 5906 5907 5907 5908 5909 5909 5910 5910 5911 5911 5911 5911 5911 5912 5912 5913 5914 5915 5916 5916 5917 5918 5920 5920 5921 5922 5922 5921 5920 5919 5919 5919 5919 5920 5921 5922 5922 5923 5923 5923 5923 5923 5924 5924 5925 5925 5925 5925 5925 5925 5926 5926 5926 5926 5927 5927 5927 5927 5926 5926 5926 5927 5927 5927 5926 5926 5925 5925 5925 5924 5924 5924
5901 5902 5903 5903 5903 5903 5904 5904 5905 5905 5906 5906 5906 5907 5907 5908 5909 5910 5910 5911 5911 5912 5912 5912 5912 5912 5912 5913 5914 5914 5915 5916 5916 5918 5919 5920 5921 5922 5923 5922 5921 5920 5919 5919 5919 5920 5921 5922 5923 5923 5923 5923 5923 5924 5924 5925 5925 5925 5926 5926 5926 5926 5926 5927 5927 5927 5927 5928 5928 5928 5927 5927 5927 5927 5928 5928 5927 5927 5926 5926 5926 5926 5925 5925 5925
5902 5903 5903 5904 5904 5904 5904 5905 5905 5905 5906 5906 5906 5907 5908 5909 5909 5910 5911 5911 5912 5912 5913 5913 5913 5914 5914 5914 5914 5915 5916 5916 5917 5918 5920 5921 5921 5922 5922 5923 5922 5920 5919 5919 5920 5920 5921 5922 5923 5924 5924 5924 5924 5925 5925 5925 5926 5926 5927 5927 5927 5927 5927 5927 5928 5928 5929 5929 5929 5928 5928 5928 5928 5929 5929 5928 5928 5927 5927 5927 5927 5927 5926 5926 5925
5903 5904 5904 5904 5904 5904 5904 5904 5905 5905 5905 5906 5907 5908 5909 5910 5910 5910 5911 5911 5912 5912 5913 5913 5913 5914 5915 5915 5915 5916 5917 5917 5918 5918 5919 5921 5921 5921 5922 5923 5922 5920 5919 5920 5920 5921 5922 5923 5924 5924 5925 5925 5925 5926 5926 5926 5927 5927 5928 5928 5928 5928 5928 5928 5930 5930 5930 5929 5929 5929 5929 5929 5930 5930 5929 5929 5928 5928 5928 5928 5928 5928 5927 5926 5926
5904 5904 5904 5904 5904 5904 5904 5904 5904 5905 5905 5906 5907 5908 5909 5910 5910 5910 5910 5911 5911 5912 5914 5914 5914 5914 5915 5915 5916 5916 5917 5917 5918 5919 5919 5920 5921 5921 5923 5923 5922 5920 5920 5920 5921 5921 5922 5923 5924 5925 5926 5926 5926 5927 5927 5927 5928 5928 5928 5929 5929 5929 5929 5929 5931 5931 5930 5930 5930 5930 5930 5931 5931 5930 5930 5930 5929 5929 5929 5929 5929 5928 5928 5927 5926
5904 5904 5904 5905 5905 5904 5904 5904 5904 5905 5905 5906 5907 5908 5909 5910 5910 5910 5910 5910 5911 5912 5914 5914 5914 5914 5915 5915 5916 5916 5917 5917 5918 5919 5919 5920 5921 5922 5922 5922 5921 5921 5921 5921 5921 5922 5923 5924 5925 5925 5926 5927 5927 5928 5928 5928 5929 5929 5929 5929 5930 5930 5930 5931 5931 5932 5931 5931 5931 5931 5931 5932 5931 5931 5931 5930 5930 5929 5929 5929 5929 5929 5928 5928 5927
5904 5904 5904 5904 5904 5904 5904 5904 5904 5905 5905 5906 5907 5908 5908 5910 5910 5910 5910 5910 5911 5912 5913 5914 5914 5914 5914 5915 5915 5916 5916 5917 5918 5919 5919 5919 5920 5921 5921 5921 5921 5922 5922 5922 5922 5923 5923 5924 5925 5926 5927 5927 5928 5928 5929 5929 5929 5930 5930 5930 5931 5931 5931 5932 5932 5932 5932 5932 5931 5932 5932 5932 5932 5932 5931 5931 5931 5930 5930 5930 5930 5929 5929 5928 5927
5904 5904 5904 5904 5904 5904 5904 5904 5905 5905 5905 5906 5907 5907 5908 5909 5909 5909 5910 5910 5911 5912 5913 5913 5913 5914 5914 5914 5914 5915 5915 5916 5917 5918 5919 5919 5920 5921 5922 5922 5922 5922 5923 5923 5923 5923 5924 5925 5926 5927 5927 5928 5929 5929 5930 5930 5930 5931 5931 5931 5932 5932 5932 5933 5933 5933 5933 5932 5932 5933 5933 5933 5933 5932 5932 5932 5931 5931 5931 5931 5930 5930 5929 5929 5928
5903 5903 5904 5904 5904 5904 5904 5904 5905 5905 5906 5906 5906 5907 5907 5908 5909 5909 5909 5910 5911 5911 5912 5912 5913 5913 5914 5913 5913 5914 5915 5915 5917 5918 5919 5919 5920 5921 5922 5923 5922 5923 5923 5923 5924 5924 5925 5926 5927 5927 5928 5929 5929 5930 5931 5931 5931 5931 5932 5932 5933 5933 5933 5933 5934 5934 5933 5933 5933 5934 5934 5934 5934 5933 5933 5933 5932 5932 5931 5931 5931 5930 5930 5929 5928
5904 5904 5904 5904 5904 5904 5904 5905 5905 5905 5905 5905 5906 5906 5907 5908 5908 5909 5909 5910 5910 5910 5911 5912 5912 5913 5913 5912 5913 5913 5914 5915 5917 5918 5919 5920 5920 5921 5923 5923 5923 5923 5923 5924 5924 5924 5925 5926 5928 5928 5929 5929 5930 5931 5931 5932 5932 5932 5932 5933 5933 5934 5934 5934 5935 5935 5934 5934 5934 5934 5934 5935 5934 5934 5934 5933 5933 5932 5932 5932 5931 5931 5930 5930 5929
5905 5904 5904 5904 5904 5904 5905 5905 5905 5905 5905 5905 5905 5905 5906 5907 5908 5908 5909 5909 5909 5909 5910 5911 5911 5912 5912 5912 5913 5913 5914 5915 5917 5919 5919 5920 5921 5922 5923 5923 5923 5923 5923 5924 5924 5925 5926 5927 5928 5929 5929 5930 5931 5932 5932 5933 5933 5933 5933 5933 5934 5934 5934 5935 5936 5935 5935 5935 5935 5935 5935 5935 5935 5935 5935 5934 5933 5933 5933 5932 5932 5931 5931 5930 5929
5905 5905 5905 5905 5905 5905 5905 5905 5905 5905 5905 5905 5904 5905 5906 5906 5907 5907 5908 5908 5908 5908 5909 5910 5910 5911 5911 5912 5912 5913 5914 5916 5917 5919 5920 5921 5921 5922 5923 5923 5923 5923 5923 5924 5924 5925 5927 5928 5929 5929 5930 5931 5931 5932 5932 5933 5934 5934 5934 5934 5934 5934 5935 5936 5936 5936 5936 5936 5936 5936 5936 5936 5936 5936 5936 5935 5934 5934 5933 5933 5933 5932 5931 5930 5929
5905 5905 5905 5905 5905 5905 5906 5906 5905 5905 5905 5904 5904 5905 5906 5906 5906 5906 5907 5907 5907 5907 5908 5909 5910 5911 5911 5912 5913 5913 5915 5916 5917 5918 5919 5920 5921 5923 5923 5923 5923 5923 5923 5924 5925 5926 5927 5928 5929 5930 5930 5931 5932 5933 5933 5933 5934 5935 5934 5934 5934 5935 5935 5937 5937 5937 5937 5937 5937 5937 5937 5937 5937 5937 5936 5936 5935 5935 5934 5934 5933 5933 5932 5931 5930
5905 5904 5904 5904 5905 5905 5906 5906 5906 5905 5905 5904 5904 5905 5905 5905 5905 5905 5906 5907 5906 5906 5907 5908 5909 5910 5911 5911 5912 5913 5915 5916 5917 5918 5919 5920 5922 5923 5924 5924 5923 5923 5923 5924 5925 5926 5928 5929 5929 5930 5931 5932 5933 5933 5934 5934 5934 5935 5935 5935 5935 5935 5936 5938 5938 5938 5938 5938 5938 5938 5938 5938 5938 5938 5938 5937 5936 5936 5935 5934 5934 5933 5933 5932 5931
5904 5904 5904 5904 5904 5905 5905 5905 5905 5905 5904 5904 5904 5904 5904 5904 5904 5905 5905 5906 5905 5905 5906 5907 5908 5909 5910 5911 5912 5913 5914 5916 5917 5918 5919 5920 5922 5924 5925 5924 5924 5924 5924 5925 5926 5927 5928 5929 5930 5931 5932 5933 5934 5934 5934 5934 5935 5936 5936 5936 5935 5936 5938 5938 5939 5939 5939 5940 5940 5940 5939 5939 5939 5939 5939 5938 5938 5937 5936 5935 5934 5934 5933 5933 5931
5904 5903 5903 5903 5904 5905 5905 5905 5905 5904 5903 5903 5903 5904 5904 5903 5903 5904 5905 5905 5904 5904 5905 5906 5907 5908 5910 5911 5912 5913 5914 5915 5917 5918 5919 5920 5922 5924 5925 5924 5924 5924 5925 5925 5926 5927 5928 5930 5930 5931 5932 5933 5934 5935 5935 5935 5935 5936 5937 5936 5936 5937 5938 5939 5940 5940 5941 5941 5941 5941 5941 5940 5940 5940 5940 5939 5939 5938 5937 5936 5935 5934 5934 5933 5932
5904 5903 5903 5903 5904 5905 5905 5906 5905 5903 5902 5902 5903 5903 5903 5902 5903 5903 5904 5904 5904 5904 5905 5906 5906 5908 5909 5910 5912 5913 5914 5915 5916 5917 5918 5920 5922 5924 5924 5924 5924 5924 5925 5926 5926 5928 5929 5930 5931 5932 5933 5934 5934 5935 5935 5936 5936 5937 5937 5937 5937 5938 5939 5940 5941 5942 5942 5943 5943 5942 5942 5941 5941 5941 5940 5940 5939 5938 5938 5937 5936 5935 5934 5933 5932
5904 5903 5903 5903 5903 5904 5906 5906 5905 5903 5902 5903 5904 5903 5902 5902 5902 5903 5904 5904 5904 5904 5905 5906 5906 5907 5909 5910 5911 5912 5913 5914 5915 5917 5919 5921 5922 5923 5923 5923 5924 5925 5926 5927 5927 5928 5930 5931 5932 5933 5934 5935 5935 5935 5936 5937 5937 5937 5937 5938 5939 5939 5940 5941 5942 5943 5943 5943 5943 5943 5942 5942 5941 5941 5941 5940 5939 5939 5938 5938 5937 5936 5935 5934 5933
5904 5904 5903 5903 5903 5904 5906 5906 5905 5903 5902 5903 5904 5903 5902 5902 5902 5903 5904 5904 5904 5904 5905 5906 5906 5907 5908 5910 5911 5912 5913 5914 5916 5918 5920 5922 5922 5922 5923 5924 5924 5925 5927 5927 5928 5929 5930 5931 5932 5934 5935 5935 5935 5936 5937 5938 5938 5938 5938 5939 5939 5940 5941 5942 5943 5943 5944 5944 5944 5943 5943 5942 5942 5941 5941 5940 5939 5939 5938 5938 5937 5937 5936 5934 5933
5905 5904 5904 5904 5904 5905 5906 5907 5905 5903 5902 5903 5904 5903 5902 5902 5903 5903 5904 5904 5904 5904 5905 5906 5906 5907 5908 5910 5911 5912 5913 5915 5917 5919 5921 5921 5921 5922 5923 5924 5925 5926 5927 5928 5929 5930 5931 5932 5933 5935 5935 5936 5936 5937 5938 5938 5938 5939 5939 5939 5940 5941 5942 5943 5943 5944 5944 5944 5944 5944 5943 5943 5942 5941 5941 5940 5940 5939 5939 5938 5938 5937 5936 5935 5934
5905 5905 5904 5904 5905 5905 5907 5907 5906 5904 5903 5902 5903 5903 5903 5903 5903 5904 5904 5905 5904 5904 5904 5905 5906 5907 5908 5910 5911 5913 5914 5915 5917 5919 5920 5921 5922 5922 5923 5924 5926 5927 5928 5929 5930 5932 5932 5933 5934 5936 5936 5937 5937 5937 5939 5938 5938 5939 5940 5940 5941 5942 5943 5943 5944 5944 5944 5944 5944 5944 5943 5943 5942 5941 5941 5940 5940 5940 5939 5939 5938 5937 5937 5936 5934
5906 5905 5905 5905 5905 5906 5907 5908 5907 5905 5904 5903 5903 5904 5904 5903 5903 5904 5905 5905 5905 5904 5904 5905 5906 5907 5908 5910 5911 5913 5914 5916 5917 5919 5920 5921 5923 5923 5924 5925 5926 5928 5929 5930 5931 5933 5933 5934 5935 5936 5937 5938 5939 5938 5939 5939 5938 5939 5940 5941 5942 5943 5943 5944 5944 5944 5944 5944 5944 5944 5944 5943 5943 5942 5941 5941 5941 5940 5939 5939 5938 5937 5937 5936 5934
5907 5906 5906 5906 5906 5906 5907 5908 5908 5907 5905 5905 5905 5905 5905 5904 5904 5905 5905 5906 5906 5906 5905 5905 5906 5907 5908 5910 5912 5913 5915 5917 5918 5920 5921 5922 5924 5924 5925 5926 5927 5929 5930 5931 5932 5933 5934 5934 5935 5936 5937 5938 5939 5939 5940 5940 5939 5940 5941 5941 5942 5943 5944 5944 5944 5944 5944 5944 5944 5944 5944 5944 5943 5942 5942 5942 5941 5940 5939 5939 5938 5938 5937 5936 5935
5908 5907 5907 5907 5906 5906 5907 5908 5908 5908 5907 5906 5907 5906 5906 5905 5905 5906 5907 5907 5907 5907 5907 5907 5907 5907 5909 5911 5913 5915 5916 5917 5919 5921 5922 5923 5925 5926 5926 5927 5929 5930 5931 5932 5933 5934 5934 5935 5936 5937 5938 5938 5939 5939 5940 5941 5940 5941 5941 5942 5942 5943 5944 5944 5944 5944 5944 5944 5944 5944 5944 5944 5943 5943 5942 5942 5941 5940 5939 5939 5939 5938 5937 5936 5935
5908 5908 5908 5908 5907 5907 5907 5908 5908 5909 5908 5907 5907 5907 5907 5907 5907 5907 5908 5908 5909 5909 5909 5909 5909 5909 5910 5912 5914 5915 5917 5918 5919 5921 5922 5924 5926 5927 5927 5928 5930 5931 5932 5933 5934 5935 5935 5936 5936 5938 5938 5938 5939 5939 5940 5941 5941 5941 5941 5942 5942 5943 5944 5944 5944 5944 5944 5943 5944 5944 5944 5944 5943 5943 5943 5942 5942 5940 5939 5939 5939 5938 5938 5937 5935
5908 5908 5908 5908 5908 5908 5907 5908 5908 5909 5909 5908 5908 5908 5908 5908 5908 5909 5909 5910 5910 5911 5911 5911 5911 5911 5912 5913 5915 5916 5918 5919 5921 5922 5923 5925 5927 5928 5928 5930 5931 5932 5933 5934 5935 5935 5936 5936 5937 5938 5938 5938 5938 5938 5939 5941 5941 5941 5941 5941 5942 5943 5943 5944 5943 5944 5944 5944 5944 5944 5944 5944 5943 5943 5943 5942 5942 5940 5940 5939 5939 5939 5939 5937 5936
5909 5908 5908 5908 5908 5908 5908 5908 5908 5909 5909 5909 5909 5909 5909 5909 5909 5910 5911 5911 5911 5912 5913 5913 5913 5913 5914 5915 5916 5918 5920 5921 5922 5923 5924 5926 5928 5928 5929 5930 5932 5933 5934 5935 5936 5936 5937 5937 5937 5938 5938 5938 5938 5938 5939 5940 5941 5941 5941 5941 5942 5943 5943 5944 5944 5944 5944 5944 5944 5944 5944 5944 5944 5944 5943 5943 5942 5941 5940 5940 5939 5940 5940 5938 5936
5909 5909 5908 5908 5909 5909 5909 5909 5908 5909 5910 5910 5910 5910 5910 5910 5911 5911 5912 5912 5912 5913 5914 5914 5914 5915 5916 5917 5918 5919 5921 5922 5922 5923 5925 5927 5928 5929 5930 5931 5932 5934 5935 5936 5936 5937 5937 5937 5937 5938 5939 5939 5939 5939 5940 5940 5941 5941 5941 5942 5942 5943 5943 5944 5944 5944 5945 5945 5945 5945 5945 5945 5945 5945 5944 5943 5942 5941 5941 5940 5940 5939 5940 5939 5937
5910 5909 5909 5909 5909 5909 5909 5909 5909 5909 5910 5910 5910 5910 5910 5911 5911 5912 5912 5913 5913 5914 5915 5915 5916 5916 5917 5918 5919 5920 5921 5922 5922 5924 5927 5928 5929 5929 5931 5932 5934 5935 5936 5936 5936 5937 5937 5937 5938 5939 5939 5939 5939 5940 5941 5941 5941 5941 5942 5942 5942 5943 5943 5944 5945 5945 5946 5946 5946 5946 5946 5946 5945 5945 5944 5943 5941 5941 5940 5940 5939 5939 5939 5939 5938
5911 5910 5910 5909 5909 5910 5909 5910 5910 5910 5911 5910 5910 5910 5910 5911 5911 5912 5913 5914 5914 5915 5915 5916 5917 5918 5918 5919 5920 5921 5921 5922 5924 5926 5928 5929 5930 5930 5931 5933 5934 5935 5936 5937 5937 5937 5937 5937 5938 5939 5939 5939 5939 5940 5941 5942 5942 5942 5942 5943 5943 5943 5944 5944 5946 5946 5947 5947 5947 5947 5946 5945 5944 5944 5943 5943 5942 5940 5939 5939 5938 5938 5938 5938 5938
5911 5911 5910 5910 5910 5910 5910 5910 5910 5911 5911 5912 5912 5912 5911 5911 5912 5913 5913 5914 5915 5916 5916 5917 5918 5919 5920 5920 5921 5921 5922 5924 5926 5927 5928 5929 5931 5932 5932 5934 5935 5936 5936 5937 5938 5938 5938 5938 5938 5939 5939 5939 5940 5940 5941 5941 5943 5943 5943 5943 5944 5944 5945 5945 5946 5946 5946 5947 5947 5947 5947 5946 5945 5944 5943 5943 5942 5941 5939 5939 5938 5937 5937 5936 5936
5912 5911 5911 5911 5910 5910 5910 5910 5910 5911 5911 5913 5914 5914 5914 5913 5913 5914 5914 5914 5916 5916 5917 5918 5920 5920 5921 5922 5923 5923 5924 5926 5927 5928 5929 5930 5931 5932 5933 5935 5936 5936 5937 5938 5938 5939 5938 5938 5938 5939 5939 5939 5940 5941 5941 5941 5942 5944 5944 5944 5944 5945 5945 5945 5946 5945 5946 5946 5946 5947 5947 5946 5946 5945 5944 5944 5942 5941 5939 5938 5937 5936 5935 5934 5933
5912 5912 5912 5912 5911 5911 5911 5911 5911 5911 5911 5912 5913 5915 5915 5915 5916 5916 5916 5916 5917 5918 5920 5921 5922 5922 5923 5924 5924 5925 5926 5927 5928 5929 5930 5931 5932 5933 5934 5935 5936 5937 5938 5938 5939 5939 5939 5938 5939 5940 5940 5940 5940 5941 5942 5942 5942 5944 5944 5945 5945 5945 5945 5945 5945 5945 5945 5946 5946 5946 5946 5946 5946 5945 5944 5944 5943 5941 5939 5938 5937 5936 5935 5934 5932
5912 5912 5912 5912 5912 5912 5912 5912 5912 5912 5912 5912 5913 5914 5915 5916 5916 5917 5918 5919 5919 5920 5921 5922 5923 5923 5924 5925 5925 5926 5927 5928 5929 5930 5931 5932 5933 5934 5935 5936 5937 5937 5938 5938 5939 5939 5939 5939 5940 5941 5941 5941 5942 5942 5942 5943 5943 5944 5944 5944 5945 5945 5945 5945 5946 5945 5945 5946 5946 5946 5946 5946 5945 5944 5944 5944 5943 5941 5940 5938 5937 5936 5936 5934 5933
5912 5913 5913 5913 5913 5912 5912 5912 5912 5913 5913 5913 5913 5914 5915 5915 5916 5917 5918 5919 5920 5921 5921 5922 5923 5923 5924 5925 5926 5927 5927 5929 5930 5931 5932 5933 5934 5935 5935 5936 5937 5937 5938 5939 5939 5939 5939 5940 5941 5941 5941 5942 5942 5943 5942 5943 5944 5944 5944 5944 5944 5944 5945 5945 5946 5946 5946 5946 5946 5946 5946 5946 5946 5944 5944 5943 5943 5941 5940 5938 5937 5936 5935 5933 5933
5912 5913 5913 5913 5913 5913 5913 5913 5913 5913 5913 5914 5914 5915 5915 5916 5916 5917 5918 5919 5919 5920 5921 5922 5923 5924 5925 5926 5926 5927 5928 5930 5931 5932 5933 5934 5935 5935 5936 5937 5937 5938 5938 5939 5940 5939 5940 5940 5941 5941 5942 5942 5943 5943 5943 5943 5944 5944 5944 5944 5944 5945 5945 5945 5946 5946 5946 5946 5946 5946 5946 5946 5945 5944 5943 5943 5942 5941 5939 5938 5937 5936 5935 5934 5934
5912 5912 5913 5913 5913 5914 5914 5913 5913 5914 5914 5915 5915 5915 5916 5917 5917 5918 5919 5919 5920 5921 5922 5923 5924 5925 5926 5927 5928 5929 5930 5931 5932 5933 5934 5935 5936 5937 5937 5938 5938 5939 5939 5940 5940 5940 5940 5941 5941 5942 5942 5942 5943 5943 5943 5943 5944 5944 5945 5945 5945 5945 5945 5945 5946 5946 5946 5946 5946 5945 5945 5945 5944 5943 5943 5943 5942 5941 5939 5938 5937 5937 5936 5935 5935
5912 5912 5913 5913 5914 5914 5914 5914 5914 5914 5915 5915 5916 5916 5917 5918 5918 5919 5920 5920 5921 5922 5923 5924 5925 5926 5927 5928 5929 5930 5931 5932 5933 5934 5935 5936 5937 5937 5938 5938 5939 5939 5940 5941 5941 5941 5941 5941 5942 5942 5943 5943 5943 5944 5944 5944 5944 5945 5945 5945 5945 5945 5945 5946 5946 5946 5946 5946 5945 5945 5944 5944 5944 5943 5943 5942 5942 5941 5939 5939 5938 5938 5937 5935 5934
5912 5912 5913 5913 5913 5914 5915 5915 5915 5915 5915 5916 5917 5917 5918 5919 5920 5920 5921 5922 5923 5923 5924 5925 5926 5927 5928 5929 5930 5931 5932 5933 5934 5935 5936 5936 5937 5938 5938 5939 5939 5940 5940 5941 5941 5941 5941 5942 5942 5942 5943 5943 5944 5944 5944 5944 5945 5945 5945 5945 5945 5945 5945 5945 5945 5946 5945 5945 5945 5944 5943 5943 5944 5943 5943 5942 5941 5940 5940 5939 5938 5937 5936 5935 5934
5911 5912 5913 5913 5913 5914 5914 5915 5916 5916 5916 5917 5917 5918 5918 5919 5920 5921 5922 5923 5924 5924 5925 5926 5927 5928 5929 5930 5931 5932 5933 5934 5935 5936 5936 5937 5938 5938 5939 5939 5939 5940 5940 5941 5941 5942 5942 5942 5942 5943 5943 5943 5944 5944 5944 5945 5945 5945 5945 5945 5946 5946 5945 5945 5946 5946 5945 5945 5945 5944 5944 5943 5943 5943 5942 5942 5941 5941 5940 5939 5938 5937 5937 5936 5935